QPF
0.00 0.01 0.01 0.01 0.02 0.03 0.06 0.09 0.11 0.15 0.17 0.16 0.13 0.09 0.06 0.03 0.02 0.01 0.01 0.01 0.00 0.00 0.00 0.00 0.00 0.00 0.00 0.00 0.00 0.00 0.00 0.00 0.00 0.00 0.00 0.00 0.00 0.00 0.00 0.00 0.00 0.00 0.00
0.01 0.01 0.01 0.02 0.02 0.02 0.04 0.07 0.10 0.13 0.17 0.17 0.15 0.10 0.06 0.04 0.02 0.01 0.01 0.01 0.00 0.00 0.00 0.00 0.00 0.00 0.00 0.00 0.00 0.00 0.00 0.00 0.00 0.00 0.00 0.00 0.00 0.00 0.00 0.00 0.00 0.00 0.00
0.01 0.01 0.01 0.02 0.03 0.02 0.04 0.05 0.08 0.12 0.13 0.16 0.17 0.15 0.11 0.07 0.04 0.02 0.01 0.01 0.01 0.00 0.00 0.00 0.00 0.00 0.00 0.00 0.00 0.00 0.00 0.00 0.00 0.00 0.00 0.00 0.00 0.00 0.00 0.00 0.00 0.00 0.00
0.00 0.01 0.01 0.01 0.02 0.02 0.02 0.04 0.06 0.11 0.14 0.15 0.17 0.16 0.14 0.08 0.04 0.02 0.01 0.01 0.01 0.01 0.00 0.00 0.00 0.00 0.00 0.00 0.00 0.00 0.00 0.00 0.00 0.00 0.00 0.00 0.00 0.00 0.00 0.00 0.00 0.00 0.00
0.01 0.01 0.01 0.01 0.02 0.02 0.04 0.04 0.05 0.08 0.14 0.14 0.14 0.16 0.12 0.09 0.05 0.03 0.03 0.02 0.01 0.01 0.01 0.00 0.00 0.00 0.00 0.00 0.00 0.00 0.00 0.00 0.00 0.00 0.00 0.00 0.00 0.00 0.00 0.00 0.00 0.00 0.00
0.02 0.01 0.01 0.01 0.02 0.03 0.05 0.05 0.05 0.07 0.12 0.16 0.14 0.15 0.12 0.09 0.08 0.04 0.03 0.03 0.02 0.01 0.01 0.01 0.00 0.00 0.00 0.00 0.00 0.00 0.00 0.00 0.00 0.00 0.00 0.00 0.00 0.00 0.00 0.00 0.00 0.00 0.00
0.02 0.02 0.03 0.04 0.04 0.04 0.04 0.04 0.05 0.06 0.08 0.14 0.18 0.15 0.13 0.09 0.06 0.04 0.02 0.02 0.02 0.01 0.01 0.00 0.00 0.00 0.00 0.00 0.00 0.00 0.00 0.00 0.00 0.00 0.00 0.00 0.00 0.00 0.00 0.00 0.00 0.00 0.00
0.02 0.02 0.02 0.03 0.04 0.05 0.05 0.04 0.04 0.06 0.06 0.08 0.17 0.20 0.15 0.10 0.05 0.03 0.02 0.01 0.01 0.01 0.01 0.00 0.00 0.00 0.00 0.00 0.00 0.00 0.00 0.00 0.00 0.00 0.00 0.00 0.00 0.00 0.00 0.00 0.00 0.00 0.00
0.02 0.02 0.01 0.01 0.03 0.05 0.05 0.04 0.04 0.05 0.06 0.04 0.09 0.22 0.24 0.13 0.06 0.03 0.02 0.02 0.01 0.01 0.01 0.01 0.00 0.00 0.00 0.00 0.00 0.00 0.01 0.01 0.00 0.00 0.00 0.00 0.00 0.00 0.00 0.00 0.00 0.00 0.01
0.02 0.01 0.01 0.01 0.02 0.03 0.04 0.05 0.04 0.05 0.07 0.04 0.04 0.12 0.28 0.25 0.09 0.04 0.03 0.02 0.01 0.01 0.01 0.01 0.01 0.00 0.00 0.00 0.00 0.00 0.00 0.00 0.00 0.00 0.01 0.01 0.01 0.01 0.00 0.00 0.00 0.00 0.01
0.01 0.01 0.00 0.00 0.01 0.02 0.03 0.04 0.04 0.05 0.07 0.06 0.04 0.06 0.15 0.28 0.20 0.08 0.04 0.02 0.01 0.01 0.01 0.01 0.01 0.00 0.00 0.00 0.00 0.00 0.00 0.00 0.00 0.00 0.01 0.01 0.01 0.01 0.00 0.00 0.00 0.00 0.01
0.01 0.01 0.01 0.00 0.01 0.01 0.02 0.02 0.03 0.03 0.05 0.06 0.05 0.06 0.08 0.16 0.25 0.15 0.07 0.03 0.02 0.02 0.01 0.01 0.01 0.01 0.01 0.00 0.00 0.01 0.00 0.00 0.00 0.00 0.01 0.01 0.01 0.00 0.00 0.00 0.01 0.01 0.01
0.00 0.01 0.01 0.00 0.00 0.01 0.01 0.01 0.01 0.02 0.03 0.06 0.06 0.07 0.07 0.09 0.16 0.19 0.11 0.06 0.03 0.02 0.02 0.01 0.01 0.01 0.01 0.01 0.00 0.00 0.00 0.00 0.00 0.00 0.01 0.01 0.00 0.00 0.00 0.01 0.01 0.01 0.01
0.00 0.01 0.01 0.00 0.00 0.00 0.01 0.01 0.00 0.01 0.03 0.06 0.07 0.06 0.06 0.07 0.08 0.12 0.13 0.09 0.05 0.03 0.02 0.02 0.01 0.01 0.01 0.01 0.01 0.00 0.00 0.00 0.00 0.00 0.00 0.00 0.00 0.00 0.01 0.01 0.01 0.01 0.01
0.01 0.00 0.00 0.00 0.00 0.00 0.00 0.01 0.00 0.00 0.02 0.06 0.07 0.05 0.05 0.05 0.06 0.08 0.10 0.10 0.08 0.04 0.02 0.02 0.02 0.02 0.01 0.01 0.01 0.00 0.00 0.00 0.00 0.00 0.00 0.00 0.00 0.01 0.01 0.01 0.01 0.01 0.01
0.02 0.01 0.00 0.00 0.00 0.00 0.00 0.01 0.00 0.00 0.02 0.05 0.07 0.04 0.04 0.05 0.05 0.06 0.06 0.07 0.08 0.07 0.04 0.02 0.02 0.02 0.02 0.01 0.01 0.01 0.01 0.00 0.00 0.00 0.00 0.00 0.01 0.01 0.01 0.01 0.01 0.01 0.00
0.02 0.01 0.01 0.00 0.00 0.00 0.00 0.01 0.01 0.01 0.02 0.04 0.06 0.04 0.03 0.04 0.04 0.05 0.05 0.05 0.05 0.06 0.06 0.04 0.02 0.02 0.02 0.02 0.02 0.02 0.01 0.00 0.00 0.00 0.00 0.00 0.01 0.01 0.00 0.01 0.01 0.00 0.00
0.02 0.01 0.01 0.01 0.00 0.00 0.01 0.01 0.01 0.01 0.02 0.04 0.05 0.03 0.03 0.04 0.04 0.05 0.05 0.05 0.04 0.03 0.04 0.04 0.03 0.02 0.02 0.02 0.02 0.02 0.01 0.01 0.01 0.01 0.01 0.01 0.01 0.01 0.01 0.00 0.00 0.00 0.01
0.02 0.02 0.01 0.01 0.00 0.00 0.01 0.01 0.01 0.02 0.03 0.04 0.04 0.02 0.02 0.03 0.05 0.05 0.05 0.05 0.04 0.03 0.03 0.03 0.03 0.02 0.02 0.02 0.02 0.02 0.01 0.01 0.01 0.01 0.01 0.01 0.01 0.01 0.01 0.00 0.00 0.01 0.01
0.03 0.03 0.02 0.01 0.01 0.00 0.01 0.01 0.02 0.02 0.03 0.04 0.03 0.02 0.02 0.02 0.03 0.04 0.05 0.06 0.05 0.04 0.03 0.03 0.02 0.03 0.02 0.03 0.02 0.02 0.01 0.01 0.01 0.01 0.01 0.01 0.01 0.01 0.01 0.00 0.00 0.01 0.01
0.02 0.03 0.03 0.02 0.01 0.01 0.01 0.01 0.02 0.02 0.03 0.02 0.02 0.02 0.02 0.02 0.02 0.03 0.05 0.05 0.06 0.05 0.05 0.03 0.02 0.02 0.03 0.03 0.02 0.01 0.01 0.01 0.01 0.01 0.01 0.01 0.01 0.01 0.01 0.01 0.01 0.01 0.01
0.02 0.02 0.02 0.02 0.01 0.01 0.01 0.01 0.02 0.02 0.03 0.03 0.03 0.02 0.03 0.03 0.03 0.03 0.04 0.05 0.05 0.06 0.06 0.05 0.03 0.03 0.03 0.03 0.03 0.02 0.01 0.01 0.01 0.01 0.01 0.01 0.01 0.01 0.01 0.01 0.01 0.01 0.01
0.05 0.03 0.02 0.02 0.02 0.02 0.02 0.02 0.02 0.02 0.03 0.04 0.04 0.03 0.04 0.04 0.03 0.03 0.04 0.05 0.05 0.05 0.06 0.05 0.04 0.03 0.03 0.03 0.04 0.03 0.03 0.02 0.02 0.01 0.02 0.02 0.02 0.02 0.01 0.01 0.01 0.01 0.01
0.06 0.04 0.02 0.02 0.02 0.02 0.03 0.03 0.02 0.02 0.02 0.04 0.05 0.04 0.04 0.05 0.04 0.03 0.03 0.04 0.04 0.04 0.03 0.04 0.03 0.03 0.02 0.03 0.02 0.02 0.03 0.03 0.02 0.02 0.03 0.03 0.03 0.02 0.01 0.01 0.01 0.01 0.01
0.07 0.05 0.04 0.03 0.03 0.03 0.04 0.04 0.03 0.03 0.03 0.03 0.05 0.06 0.05 0.04 0.04 0.04 0.03 0.03 0.03 0.04 0.02 0.01 0.01 0.02 0.02 0.02 0.02 0.02 0.02 0.02 0.02 0.02 0.02 0.02 0.02 0.01 0.01 0.01 0.01 0.01 0.01
0.07 0.06 0.05 0.03 0.03 0.03 0.04 0.05 0.04 0.03 0.03 0.03 0.04 0.06 0.06 0.05 0.05 0.04 0.05 0.05 0.04 0.04 0.04 0.02 0.01 0.01 0.02 0.02 0.03 0.03 0.03 0.03 0.03 0.02 0.01 0.01 0.01 0.01 0.01 0.01 0.01 0.01 0.00
MSLP
1005.74 1005.06 1004.40 1003.81 1003.32 1002.99 1002.83 1002.87 1003.09 1003.48 1003.99 1004.60 1005.27 1006.00 1006.76 1007.55 1008.37 1009.21 1010.06 1010.90 1011.72 1012.49 1013.19 1013.81 1014.36 1014.83 1015.25 1015.63 1015.99 1016.35 1016.70 1017.04 1017.37 1017.67 1017.92 1018.13 1018.29 1018.40 1018.50 1018.58 1018.67 1018.77 1018.89
1006.03 1005.35 1004.65 1003.98 1003.40 1002.97 1002.71 1002.66 1002.81 1003.13 1003.59 1004.15 1004.79 1005.48 1006.20 1006.97 1007.77 1008.60 1009.45 1010.31 1011.15 1011.95 1012.69 1013.35 1013.91 1014.40 1014.84 1015.23 1015.61 1015.98 1016.37 1016.75 1017.12 1017.45 1017.74 1017.96 1018.11 1018.22 1018.27 1018.32 1018.36 1018.43 1018.52
1006.31 1005.67 1004.96 1004.25 1003.59 1003.05 1002.69 1002.53 1002.58 1002.80 1003.18 1003.67 1004.25 1004.88 1005.56 1006.29 1007.06 1007.88 1008.73 1009.61 1010.47 1011.30 1012.07 1012.76 1013.35 1013.87 1014.32 1014.74 1015.14 1015.55 1015.97 1016.39 1016.80 1017.18 1017.49 1017.73 1017.89 1017.97 1018.00 1018.01 1018.01 1018.04 1018.11
1006.52 1005.95 1005.28 1004.55 1003.84 1003.22 1002.75 1002.47 1002.39 1002.51 1002.78 1003.18 1003.67 1004.24 1004.86 1005.55 1006.29 1007.09 1007.94 1008.82 1009.70 1010.56 1011.35 1012.07 1012.70 1013.25 1013.73 1014.18 1014.62 1015.06 1015.52 1015.99 1016.44 1016.86 1017.20 1017.46 1017.62 1017.69 1017.70 1017.67 1017.65 1017.65 1017.70
1006.59 1006.14 1005.54 1004.83 1004.10 1003.42 1002.86 1002.47 1002.27 1002.25 1002.41 1002.70 1003.10 1003.59 1004.15 1004.78 1005.49 1006.27 1007.11 1007.99 1008.88 1009.75 1010.57 1011.32 1011.98 1012.56 1013.08 1013.57 1014.05 1014.54 1015.04 1015.55 1016.05 1016.50 1016.87 1017.15 1017.32 1017.39 1017.38 1017.33 1017.28 1017.27 1017.31
1006.53 1006.22 1005.72 1005.07 1004.35 1003.64 1003.01 1002.51 1002.20 1002.06 1002.09 1002.26 1002.56 1002.96 1003.44 1004.02 1004.69 1005.43 1006.26 1007.13 1008.03 1008.91 1009.76 1010.53 1011.22 1011.84 1012.39 1012.92 1013.44 1013.96 1014.51 1015.06 1015.60 1016.08 1016.49 1016.79 1016.97 1017.05 1017.04 1016.99 1016.94 1016.92 1016.96
1006.34 1006.18 1005.81 1005.25 1004.57 1003.86 1003.18 1002.60 1002.18 1001.92 1001.82 1001.87 1002.05 1002.35 1002.76 1003.27 1003.89 1004.61 1005.41 1006.27 1007.17 1008.07 1008.92 1009.71 1010.43 1011.08 1011.67 1012.22 1012.78 1013.34 1013.92 1014.51 1015.08 1015.60 1016.04 1016.37 1016.58 1016.67 1016.68 1016.64 1016.60 1016.59 1016.65
1006.06 1006.05 1005.80 1005.35 1004.74 1004.04 1003.35 1002.71 1002.19 1001.82 1001.59 1001.51 1001.57 1001.76 1002.08 1002.52 1003.09 1003.77 1004.55 1005.41 1006.31 1007.20 1008.07 1008.88 1009.62 1010.28 1010.89 1011.48 1012.06 1012.65 1013.26 1013.88 1014.48 1015.03 1015.50 1015.87 1016.11 1016.24 1016.29 1016.28 1016.27 1016.30 1016.38
1005.73 1005.83 1005.71 1005.36 1004.83 1004.18 1003.49 1002.82 1002.22 1001.74 1001.39 1001.18 1001.11 1001.18 1001.40 1001.76 1002.27 1002.91 1003.67 1004.52 1005.41 1006.32 1007.20 1008.02 1008.77 1009.45 1010.08 1010.68 1011.27 1011.88 1012.51 1013.15 1013.78 1014.36 1014.87 1015.28 1015.57 1015.76 1015.86 1015.90 1015.94 1016.02 1016.15
1005.34 1005.54 1005.52 1005.28 1004.84 1004.26 1003.59 1002.90 1002.24 1001.66 1001.19 1000.84 1000.63 1000.58 1000.68 1000.96 1001.40 1002.01 1002.74 1003.58 1004.48 1005.40 1006.30 1007.13 1007.90 1008.59 1009.23 1009.83 1010.43 1011.05 1011.69 1012.34 1012.99 1013.61 1014.16 1014.62 1014.97 1015.22 1015.39 1015.51 1015.62 1015.75 1015.94
1004.89 1005.16 1005.23 1005.09 1004.75 1004.24 1003.62 1002.92 1002.22 1001.56 1000.97 1000.49 1000.14 999.95 999.93 1000.11 1000.48 1001.04 1001.76 1002.60 1003.51 1004.45 1005.37 1006.23 1007.01 1007.71 1008.35 1008.96 1009.56 1010.17 1010.81 1011.48 1012.15 1012.79 1013.39 1013.90 1014.33 1014.66 1014.91 1015.11 1015.30 1015.51 1015.76
1004.36 1004.68 1004.83 1004.79 1004.55 1004.13 1003.56 1002.90 1002.17 1001.44 1000.74 1000.12 999.63 999.29 999.15 999.22 999.52 1000.03 1000.73 1001.57 1002.51 1003.48 1004.43 1005.32 1006.12 1006.84 1007.50 1008.10 1008.70 1009.31 1009.95 1010.61 1011.30 1011.97 1012.61 1013.19 1013.69 1014.10 1014.45 1014.74 1015.02 1015.31 1015.63
1003.74 1004.10 1004.32 1004.38 1004.25 1003.93 1003.44 1002.81 1002.08 1001.29 1000.50 999.76 999.13 998.65 998.37 998.33 998.55 999.01 999.69 1000.54 1001.50 1002.51 1003.50 1004.43 1005.28 1006.03 1006.69 1007.31 1007.90 1008.50 1009.14 1009.81 1010.51 1011.21 1011.89 1012.53 1013.10 1013.60 1014.04 1014.43 1014.79 1015.16 1015.56
1003.05 1003.44 1003.73 1003.88 1003.86 1003.64 1003.25 1002.68 1001.96 1001.14 1000.28 999.43 998.66 998.04 997.63 997.47 997.60 998.01 998.67 999.52 1000.51 1001.57 1002.62 1003.60 1004.49 1005.28 1005.97 1006.60 1007.20 1007.80 1008.44 1009.11 1009.82 1010.55 1011.28 1011.97 1012.61 1013.19 1013.72 1014.20 1014.65 1015.11 1015.57
1002.32 1002.73 1003.08 1003.32 1003.41 1003.31 1003.01 1002.51 1001.83 1001.00 1000.08 999.14 998.26 997.51 996.96 996.69 996.73 997.08 997.70 998.56 999.58 1000.68 1001.79 1002.83 1003.78 1004.62 1005.35 1006.01 1006.63 1007.24 1007.87 1008.56 1009.28 1010.04 1010.80 1011.55 1012.26 1012.91 1013.52 1014.08 1014.62 1015.15 1015.67
1001.61 1002.03 1002.43 1002.74 1002.92 1002.93 1002.74 1002.32 1001.69 1000.87 999.92 998.91 997.93 997.06 996.40 996.01 995.96 996.23 996.82 997.67 998.71 999.85 1001.01 1002.12 1003.13 1004.03 1004.82 1005.52 1006.16 1006.80 1007.46 1008.16 1008.90 1009.69 1010.49 1011.29 1012.05 1012.78 1013.46 1014.10 1014.71 1015.30 1015.88
1000.97 1001.39 1001.81 1002.18 1002.43 1002.53 1002.43 1002.10 1001.53 1000.74 999.78 998.73 997.67 996.70 995.93 995.44 995.28 995.48 996.01 996.84 997.88 999.05 1000.26 1001.43 1002.52 1003.49 1004.34 1005.10 1005.79 1006.47 1007.16 1007.90 1008.68 1009.50 1010.34 1011.19 1012.02 1012.81 1013.55 1014.26 1014.92 1015.57 1016.20
1000.46 1000.84 1001.25 1001.64 1001.95 1002.12 1002.10 1001.85 1001.34 1000.59 999.65 998.57 997.46 996.41 995.54 994.95 994.69 994.80 995.26 996.04 997.07 998.25 999.50 1000.73 1001.89 1002.94 1003.87 1004.70 1005.47 1006.21 1006.96 1007.75 1008.58 1009.45 1010.35 1011.25 1012.14 1012.99 1013.80 1014.56 1015.27 1015.96 1016.62
1000.08 1000.39 1000.76 1001.13 1001.46 1001.68 1001.73 1001.55 1001.11 1000.41 999.49 998.41 997.26 996.15 995.20 994.51 994.15 994.16 994.55 995.27 996.26 997.43 998.70 999.99 1001.21 1002.34 1003.37 1004.30 1005.16 1005.99 1006.82 1007.68 1008.58 1009.52 1010.49 1011.46 1012.41 1013.32 1014.18 1014.99 1015.74 1016.45 1017.13
999.79 1000.01 1000.31 1000.65 1000.97 1001.21 1001.31 1001.19 1000.81 1000.17 999.29 998.22 997.05 995.90 994.88 994.10 993.63 993.55 993.84 994.48 995.42 996.58 997.86 999.19 1000.48 1001.70 1002.83 1003.87 1004.84 1005.78 1006.71 1007.67 1008.66 1009.69 1010.73 1011.78 1012.80 1013.78 1014.69 1015.53 1016.31 1017.03 1017.71
999.55 999.67 999.88 1000.16 1000.46 1000.71 1000.84 1000.77 1000.46 999.87 999.03 997.99 996.82 995.64 994.56 993.69 993.14 992.95 993.14 993.71 994.59 995.71 997.00 998.36 999.72 1001.03 1002.26 1003.42 1004.52 1005.58 1006.63 1007.71 1008.80 1009.93 1011.06 1012.19 1013.28 1014.32 1015.28 1016.16 1016.95 1017.67 1018.32
999.30 999.30 999.43 999.66 999.93 1000.19 1000.34 1000.32 1000.06 999.53 998.74 997.72 996.56 995.36 994.24 993.30 992.66 992.38 992.48 992.96 993.78 994.88 996.16 997.56 998.98 1000.38 1001.73 1003.01 1004.23 1005.43 1006.60 1007.79 1009.00 1010.22 1011.45 1012.66 1013.82 1014.92 1015.92 1016.82 1017.62 1018.33 1018.95
998.97 998.89 998.96 999.14 999.40 999.65 999.83 999.85 999.64 999.16 998.41 997.42 996.27 995.07 993.91 992.92 992.21 991.85 991.88 992.30 993.07 994.15 995.43 996.86 998.35 999.84 1001.29 1002.69 1004.04 1005.35 1006.65 1007.95 1009.25 1010.57 1011.87 1013.15 1014.38 1015.52 1016.56 1017.48 1018.28 1018.96 1019.55
998.57 998.44 998.47 998.63 998.88 999.14 999.34 999.38 999.20 998.76 998.04 997.08 995.95 994.75 993.57 992.56 991.81 991.41 991.39 991.77 992.52 993.58 994.89 996.36 997.91 999.48 1001.03 1002.53 1003.98 1005.40 1006.79 1008.18 1009.56 1010.94 1012.31 1013.65 1014.92 1016.09 1017.15 1018.08 1018.87 1019.53 1020.07
998.12 997.98 998.00 998.16 998.40 998.67 998.87 998.92 998.75 998.33 997.63 996.69 995.58 994.38 993.22 992.21 991.45 991.04 991.02 991.40 992.16 993.24 994.59 996.11 997.72 999.37 1000.99 1002.58 1004.11 1005.60 1007.06 1008.50 1009.93 1011.35 1012.75 1014.10 1015.39 1016.59 1017.66 1018.59 1019.37 1020.01 1020.52
997.70 997.57 997.60 997.76 997.99 998.24 998.42 998.46 998.27 997.83 997.14 996.20 995.11 993.94 992.81 991.83 991.13 990.76 990.78 991.21 992.02 993.16 994.56 996.15 997.83 999.54 1001.23 1002.87 1004.45 1005.98 1007.46 1008.91 1010.34 1011.76 1013.15 1014.51 1015.79 1016.98 1018.05 1018.97 1019.75 1020.37 1020.86
Thickness
5602 5608 5614 5621 5628 5635 5642 5648 5651 5655 5657 5659 5660 5660 5663 5665 5665 5666 5666 5665 5665 5663 5662 5661 5660 5659 5658 5657 5655 5652 5649 5646 5644 5641 5639 5637 5634 5632 5629 5626 5623 5619 5613
5594 5601 5607 5614 5621 5629 5636 5642 5647 5650 5653 5656 5658 5658 5658 5660 5662 5662 5662 5661 5661 5660 5659 5658 5657 5656 5654 5653 5651 5648 5646 5642 5639 5639 5637 5635 5632 5628 5624 5621 5617 5614 5609
5589 5596 5602 5609 5616 5624 5631 5637 5643 5646 5649 5651 5652 5651 5651 5653 5655 5657 5658 5658 5657 5657 5656 5655 5654 5653 5651 5650 5647 5645 5642 5639 5635 5635 5634 5632 5632 5628 5622 5617 5613 5609 5605
5583 5589 5597 5604 5612 5620 5626 5632 5637 5640 5644 5647 5649 5650 5652 5654 5658 5658 5656 5655 5654 5653 5653 5652 5651 5650 5648 5647 5644 5642 5639 5636 5633 5629 5628 5628 5626 5622 5620 5614 5609 5605 5600
5578 5585 5591 5599 5607 5614 5619 5626 5631 5635 5639 5642 5646 5648 5650 5654 5655 5653 5652 5651 5650 5650 5650 5649 5648 5647 5646 5644 5642 5639 5636 5634 5631 5627 5623 5620 5617 5616 5614 5612 5607 5601 5595
5573 5580 5587 5593 5600 5607 5612 5619 5625 5629 5633 5637 5642 5646 5648 5650 5651 5651 5651 5649 5649 5648 5647 5647 5646 5645 5643 5642 5639 5636 5633 5630 5628 5624 5621 5618 5615 5612 5609 5606 5603 5599 5593
5567 5573 5581 5587 5594 5601 5606 5613 5620 5625 5630 5634 5638 5643 5646 5648 5649 5651 5650 5649 5648 5648 5647 5645 5644 5643 5641 5639 5635 5632 5629 5626 5624 5621 5617 5615 5612 5608 5604 5600 5597 5593 5588
5560 5566 5573 5581 5588 5595 5602 5608 5615 5622 5627 5631 5635 5640 5643 5645 5648 5650 5651 5651 5651 5649 5647 5644 5642 5641 5639 5636 5632 5629 5626 5623 5620 5617 5614 5610 5607 5602 5598 5594 5590 5586 5584
5554 5559 5566 5573 5581 5588 5596 5604 5610 5617 5623 5628 5632 5637 5640 5644 5647 5648 5650 5650 5650 5648 5645 5643 5640 5638 5636 5633 5630 5626 5623 5620 5616 5613 5609 5606 5601 5597 5593 5588 5584 5579 5577
5548 5554 5560 5567 5574 5582 5590 5598 5605 5613 5619 5624 5628 5634 5639 5642 5644 5646 5648 5648 5648 5646 5644 5642 5639 5636 5633 5630 5627 5624 5621 5617 5613 5610 5606 5601 5597 5592 5586 5582 5577 5573 5568
5539 5546 5553 5560 5568 5576 5583 5591 5599 5606 5612 5618 5625 5630 5634 5639 5641 5643 5646 5646 5646 5644 5643 5641 5637 5634 5631 5628 5625 5622 5619 5615 5611 5606 5602 5598 5593 5587 5582 5576 5571 5566 5561
5532 5538 5545 5553 5560 5568 5576 5584 5592 5600 5607 5614 5619 5626 5631 5635 5638 5641 5643 5643 5643 5643 5641 5638 5635 5632 5629 5625 5623 5619 5616 5612 5608 5603 5598 5593 5588 5583 5577 5572 5566 5560 5554
5526 5532 5538 5546 5552 5560 5568 5577 5585 5593 5602 5608 5614 5621 5626 5631 5635 5638 5640 5640 5640 5639 5637 5635 5632 5630 5626 5623 5620 5617 5613 5609 5605 5600 5595 5590 5584 5579 5573 5567 5560 5554 5547
5519 5524 5530 5537 5545 5553 5562 5570 5578 5586 5595 5602 5608 5615 5622 5628 5633 5635 5636 5636 5636 5635 5634 5632 5630 5627 5623 5620 5617 5613 5609 5605 5600 5596 5591 5586 5581 5576 5569 5562 5555 5548 5541
5511 5516 5521 5529 5537 5546 5555 5563 5571 5579 5587 5596 5604 5612 5619 5624 5627 5629 5631 5632 5632 5631 5630 5627 5625 5622 5619 5617 5614 5609 5605 5600 5595 5589 5585 5580 5575 5570 5564 5557 5550 5542 5534
5505 5509 5515 5521 5530 5539 5548 5556 5564 5572 5580 5590 5598 5606 5612 5617 5620 5624 5626 5626 5626 5625 5624 5622 5620 5618 5616 5613 5609 5606 5600 5595 5590 5584 5578 5573 5567 5561 5555 5549 5542 5536 5529
5497 5502 5508 5516 5524 5532 5541 5549 5558 5566 5574 5583 5591 5598 5604 5609 5614 5617 5619 5620 5621 5619 5619 5618 5616 5614 5612 5607 5603 5599 5595 5590 5585 5579 5573 5566 5560 5554 5547 5539 5532 5526 5519
5490 5496 5503 5511 5518 5526 5534 5543 5552 5560 5568 5575 5583 5590 5596 5602 5607 5610 5612 5614 5614 5614 5613 5612 5612 5609 5606 5601 5597 5591 5587 5583 5578 5573 5568 5562 5554 5547 5540 5533 5525 5517 5510
5482 5489 5497 5504 5512 5520 5528 5536 5545 5554 5561 5568 5576 5582 5589 5595 5600 5603 5606 5608 5608 5608 5607 5607 5605 5604 5600 5594 5590 5585 5580 5575 5570 5565 5561 5555 5549 5541 5533 5527 5518 5509 5500
5475 5482 5490 5498 5506 5514 5522 5530 5539 5546 5553 5561 5568 5575 5581 5588 5593 5597 5599 5600 5602 5602 5600 5599 5598 5597 5594 5588 5584 5579 5575 5569 5563 5557 5552 5547 5542 5534 5527 5520 5513 5503 5493
5469 5476 5484 5493 5500 5507 5514 5523 5532 5539 5546 5554 5561 5567 5574 5580 5585 5588 5591 5592 5593 5593 5592 5591 5589 5589 5587 5581 5577 5573 5570 5565 5557 5550 5544 5539 5533 5526 5519 5513 5506 5498 5487
5463 5470 5478 5487 5495 5502 5508 5517 5525 5532 5540 5546 5553 5560 5566 5571 5575 5579 5581 5583 5584 5584 5583 5581 5579 5578 5576 5573 5569 5566 5563 5559 5553 5546 5539 5533 5525 5518 5510 5504 5497 5487 5479
5456 5463 5471 5481 5489 5496 5502 5510 5518 5525 5532 5539 5545 5551 5556 5562 5567 5570 5572 5574 5576 5577 5576 5574 5572 5569 5567 5564 5561 5557 5553 5550 5546 5539 5533 5525 5517 5509 5501 5494 5486 5478 5470
5449 5456 5464 5473 5482 5489 5495 5502 5510 5517 5524 5531 5536 5541 5547 5552 5557 5560 5564 5567 5569 5570 5570 5568 5565 5562 5558 5557 5553 5549 5544 5539 5535 5528 5521 5514 5506 5499 5492 5484 5476 5469 5463
5441 5448 5456 5465 5474 5481 5487 5495 5501 5508 5514 5522 5527 5532 5537 5542 5547 5551 5555 5559 5563 5566 5566 5565 5563 5560 5556 5553 5550 5546 5539 5534 5528 5520 5511 5503 5496 5489 5482 5475 5468 5461 5454
5434 5441 5449 5457 5465 5472 5479 5485 5492 5498 5505 5512 5518 5523 5527 5532 5537 5540 5541 5545 5549 5551 5553 5555 5556 5554 5551 5544 5540 5536 5531 5526 5520 5514 5506 5499 5492 5485 5478 5470 5462 5454 5447